Погода в Костяеве Большом

Россия / Ивановская область     57°15′40″N   42°43′39″E
темп.,
°C
ветер,
м/с
пор.,
м/с
влажн.,
%
обл.,
%
осадки,
мм/ч
давл.,
гПа
погр.,
м
19 сентября, вс
вс1900:00+3ссв22765 0.0 102734
03:00+1ссв2380100 0.0 102763
06:00+1св2386100 0.0 102764
09:00+5св3464100 0.0 1028556
12:00+8всв3453100 0.0 1027926
15:00+9всв344999 0.0 10261087
18:00+6всв3765100 0.0 1026131
21:00+5всв496896 0.0 1026268
20 сентября, пн
пн2000:00+4всв61174100 0.0 1027488
03:00+3всв61174100 0.0 1027543
06:00+3в61073100 0.0 1027589
09:00+4в61066100 0.0 1027701
12:00+6в6858100 0.0 1027916
15:00+7в6954100 0.0 10261060
18:00+6в61054100 0.0 1025990
21:00+6в61157100 0.0 1025973
21 сентября, вт
вт2100:00+6в6125893 0.0 1024828
03:00+6вюв61263100 0.0 1023858
06:00+6в71271100 0.0 1022802
09:00+6в71278100 0.1 1021868
12:00+6в61283100 0.6 1021795
15:00+6в61281100 1.3 1020843
18:00+7в61384100 0.8 1020918
21:00+7в61286100 1.9 1019868
22 сентября, ср
ср2200:00+7в61183100 0.7 1018680
03:00+6в61177100 0.7 1017620
06:00+7всв61277100 0.2 1016662
09:00+6всв61281100 1.8 1015654
12:00+6всв61288100 4.1 1015683
15:00+6в61293100 10.8 1015889
18:00+7в61194100 1.4 1015768
21:00+8вюв4897100 1.5 1016535
23 сентября, чт
чт2300:00+8вюв3797100 0.1 1016404
03:00+9в3698100 0.1 1016254
06:00+9вюв3797100 0.0 1016351
09:00+10юв389599 0.3 1017421
12:00+11юв2493100 0.1 1016429
15:00+11ююв259493 1.4 1016294
18:00+9ю2693100 0.4 1017223
21:00+6ю2795100 0.4 1018170